Weather History for KOKV - February, 2014

Change the Weather History Date:

Wednesday, February 12, 2014

  Actual Average Record
Temperature  
Mean Temperature 18 °F -  
Max Temperature 26 °F 45 °F 71 °F (1999)
Min Temperature 10 °F 27 °F 10 °F (2014)
Degree Days  
Heating Degree Days 47    
Moisture  
Dew Point 11 °F    
Average Humidity 70    
Maximum Humidity 93    
Minimum Humidity 47    
Precipitation  
Precipitation 0.00 in - - ()
Sea Level Pressure  
Sea Level Pressure 30.37 in    
Wind  
Wind Speed 2 mph (East)    
Max Wind Speed 10 mph    
Max Gust Speed -    
Visibility 8 miles    
Events Snow    
Averages and records for this station are not official NWS values.
T = Trace of Precipitation, MM = Missing Value Source: NWS Daily Summary

Daily Weather History Graph

Daily Weather History Graph

Search for Another Location

Airport or City:

Trip Planner

Search our weather history database for the weather conditions in past years. The results will help you decide how hot, cold, wet, or windy it might be!

Date:

Astronomy

Feb. 12, 2014 Rise Set
Actual Time 7:07 AM EST 5:46 PM EST
Civil Twilight 6:40 AM EST 6:13 PM EST
Nautical Twilight 6:08 AM EST 6:45 PM EST
Astronomical Twilight 5:37 AM EST 7:16 PM EST
Moon 3:58 PM EST (2/12) 5:22 AM EST (2/12)
Length of Visible Light 11h 33m
Length of Day
10h 38m
Waxing Gibbous, 95% of the Moon is Illuminated
Feb 12
Waxing Gibbous
Feb 14
Full
Feb 22
Last Quarter
Mar 1
New
Mar 8
First Quarter

Hourly Weather History & Observations

Time (EST) Temp. Windchill Dew Point Humidity Pressure Visibility Wind Dir Wind Speed Gust Speed Precip Events Conditions
12:15 AM 19.4 °F - 8.6 °F 63% 30.46 in 10.0 mi Calm Calm - N/A   Clear
12:35 AM 17.6 °F - 6.8 °F 63% 30.45 in 10.0 mi Calm Calm - N/A   Clear
12:55 AM 17.6 °F - 8.6 °F 68% 30.45 in 10.0 mi Calm Calm - N/A   Clear
1:15 AM 17.6 °F - 6.8 °F 63% 30.45 in 10.0 mi Calm Calm - N/A   Clear
1:35 AM 15.8 °F - 8.6 °F 73% 30.45 in 10.0 mi Calm Calm - N/A   Clear
1:55 AM 15.8 °F - 8.6 °F 73% 30.46 in 10.0 mi Calm Calm - N/A   Clear
2:15 AM 14.0 °F - 8.6 °F 79% 30.46 in 10.0 mi Calm Calm - N/A   Clear
2:35 AM 12.2 °F - 6.8 °F 79% 30.46 in 10.0 mi Calm Calm - N/A   Clear
2:55 AM 12.2 °F - 8.6 °F 85% 30.45 in 10.0 mi Calm Calm - N/A   Clear
3:15 AM 12.2 °F - 8.6 °F 85% 30.47 in 10.0 mi Calm Calm - N/A   Clear
3:35 AM 12.2 °F - 8.6 °F 85% 30.46 in 10.0 mi Calm Calm - N/A   Clear
3:55 AM 12.2 °F - 8.6 °F 85% 30.46 in 10.0 mi Calm Calm - N/A   Clear
4:15 AM 10.4 °F - 6.8 °F 85% 30.45 in 10.0 mi Calm Calm - N/A   Clear
4:35 AM 10.4 °F - 6.8 °F 85% 30.46 in 10.0 mi Calm Calm - N/A   Clear
4:55 AM 10.4 °F - 8.6 °F 92% 30.46 in 10.0 mi Calm Calm - N/A   Clear
5:15 AM 10.4 °F - 8.6 °F 92% 30.47 in 10.0 mi Calm Calm - N/A   Clear
5:35 AM 10.4 °F - 8.6 °F 92% 30.47 in 10.0 mi Calm Calm - N/A   Clear
5:55 AM 10.4 °F - 8.6 °F 92% 30.47 in 10.0 mi Calm Calm - N/A   Clear
6:15 AM 10.4 °F - 6.8 °F 85% 30.47 in 10.0 mi Calm Calm - N/A   Clear
6:35 AM 10.4 °F - 6.8 °F 85% 30.46 in 10.0 mi Calm Calm - N/A   Clear
6:55 AM 12.2 °F - 6.8 °F 79% 30.48 in 10.0 mi Calm Calm - N/A   Clear
7:15 AM 10.4 °F - 5.0 °F 79% 30.48 in 10.0 mi Calm Calm - N/A   Clear
7:35 AM 12.2 °F - 6.8 °F 79% 30.48 in 10.0 mi Calm Calm - N/A   Clear
7:55 AM 12.2 °F - 6.8 °F 79% 30.47 in 10.0 mi Calm Calm - N/A   Clear
8:15 AM 14.0 °F - 6.8 °F 73% 30.48 in 10.0 mi Calm Calm - N/A   Clear
8:35 AM 14.0 °F 8.2 °F 8.6 °F 79% 30.47 in 7.0 mi NNE 3.5 mph - N/A   Clear
8:55 AM 15.8 °F - 8.6 °F 73% 30.47 in 10.0 mi Calm Calm - N/A   Clear
9:15 AM 17.6 °F - 8.6 °F 68% 30.47 in 10.0 mi Calm Calm - N/A   Clear
9:35 AM 17.6 °F 12.3 °F 6.8 °F 63% 30.46 in 10.0 mi East 3.5 mph - N/A   Clear
9:55 AM 19.4 °F 14.3 °F 6.8 °F 58% 30.47 in 10.0 mi East 3.5 mph - N/A   Clear
10:15 AM 19.4 °F 12.8 °F 8.6 °F 63% 30.46 in 10.0 mi SE 4.6 mph - N/A   Clear
10:35 AM 19.4 °F 10.4 °F 8.6 °F 63% 30.47 in 10.0 mi SE 6.9 mph - N/A   Clear
10:55 AM 21.2 °F 13.6 °F 8.6 °F 58% 30.47 in 10.0 mi SE 5.8 mph - N/A   Clear
11:15 AM 21.2 °F - 8.6 °F 58% 30.46 in 10.0 mi Calm Calm - N/A   Clear
11:35 AM 23.0 °F 14.7 °F 8.6 °F 54% 30.45 in 10.0 mi SSE 6.9 mph - N/A   Clear
11:55 AM 23.0 °F 15.8 °F 8.6 °F 54% 30.44 in 10.0 mi SSE 5.8 mph - N/A   Clear
12:15 PM 23.0 °F 15.8 °F 8.6 °F 54% 30.42 in 10.0 mi East 5.8 mph - N/A   Clear
12:35 PM 24.8 °F 17.9 °F 8.6 °F 50% 30.41 in 10.0 mi ESE 5.8 mph - N/A   Clear
12:55 PM 24.8 °F 19.1 °F 8.6 °F 50% 30.39 in 10.0 mi South 4.6 mph - N/A   Clear
1:15 PM 24.8 °F 16.9 °F 8.6 °F 50% 30.38 in 10.0 mi East 6.9 mph - N/A   Clear
1:35 PM 24.8 °F 17.9 °F 8.6 °F 50% 30.37 in 10.0 mi East 5.8 mph - N/A   Clear
1:55 PM 26.6 °F 18.2 °F 8.6 °F 47% 30.37 in 10.0 mi ESE 8.1 mph - N/A   Clear
2:15 PM 26.6 °F 19.1 °F 10.4 °F 51% 30.36 in 10.0 mi ESE 6.9 mph - N/A   Clear
2:35 PM 26.6 °F 17.5 °F 10.4 °F 51% 30.36 in 10.0 mi SE 9.2 mph - N/A   Clear
2:55 PM 26.6 °F 17.5 °F 10.4 °F 51% 30.35 in 10.0 mi ESE 9.2 mph - N/A   Clear
3:15 PM 26.6 °F 17.5 °F 10.4 °F 51% 30.34 in 10.0 mi ESE 9.2 mph - N/A   Clear
3:35 PM 26.6 °F 20.0 °F 8.6 °F 47% 30.33 in 10.0 mi East 5.8 mph - N/A   Clear
3:55 PM 26.6 °F 16.8 °F 10.4 °F 51% 30.33 in 10.0 mi ESE 10.4 mph - N/A   Clear
4:15 PM 26.6 °F 16.8 °F 10.4 °F 51% 30.32 in 10.0 mi ESE 10.4 mph - N/A   Clear
4:35 PM 26.6 °F 18.2 °F 8.6 °F 47% 30.30 in 10.0 mi ESE 8.1 mph - N/A   Clear
4:55 PM 26.6 °F 19.1 °F 8.6 °F 47% 30.29 in 10.0 mi ESE 6.9 mph - N/A   Scattered Clouds
5:15 PM 26.6 °F 22.6 °F 8.6 °F 47% 30.29 in 10.0 mi ESE 3.5 mph - N/A   Scattered Clouds
5:35 PM 26.6 °F 21.2 °F 10.4 °F 51% 30.29 in 10.0 mi ESE 4.6 mph - N/A   Mostly Cloudy
5:55 PM 26.6 °F 22.6 °F 8.6 °F 47% 30.28 in 10.0 mi East 3.5 mph - N/A   Overcast
6:15 PM 26.6 °F 21.2 °F 8.6 °F 47% 30.27 in 10.0 mi ESE 4.6 mph - N/A   Overcast
6:35 PM 26.6 °F 19.1 °F 8.6 °F 47% 30.28 in 10.0 mi ESE 6.9 mph - N/A   Overcast
6:55 PM 26.6 °F 21.2 °F 10.4 °F 51% 30.28 in 10.0 mi East 4.6 mph - N/A   Overcast
7:15 PM 24.8 °F 17.9 °F 12.2 °F 59% 30.27 in 7.0 mi East 5.8 mph - N/A Snow Light Snow
7:35 PM 23.0 °F 17.0 °F 15.8 °F 74% 30.27 in 2.5 mi ESE 4.6 mph - N/A Snow Light Snow
7:55 PM 23.0 °F - 17.6 °F 80% 30.27 in 1.5 mi Calm Calm - N/A Snow Light Snow
8:15 PM 23.0 °F - 19.4 °F 86% 30.26 in 2.0 mi Calm Calm - N/A Snow Light Snow
8:35 PM 23.0 °F - 19.4 °F 86% 30.25 in 1.2 mi Calm Calm - N/A Snow Light Snow
8:55 PM 21.2 °F 16.4 °F 19.4 °F 93% 30.23 in 1.2 mi NE 3.5 mph - N/A Snow Snow
9:15 PM 21.2 °F - 19.4 °F 93% 30.23 in 2.5 mi Calm Calm - N/A Snow Light Snow
9:35 PM 21.2 °F 16.4 °F 19.4 °F 93% 30.23 in 1.8 mi North 3.5 mph - N/A Snow Light Snow
9:55 PM 21.2 °F 16.4 °F 19.4 °F 93% 30.21 in 1.5 mi North 3.5 mph - N/A Snow Light Snow
10:15 PM 21.2 °F 14.9 °F 19.4 °F 93% 30.21 in 1.2 mi North 4.6 mph - N/A Snow Light Snow
10:35 PM 21.2 °F 16.4 °F 19.4 °F 93% 30.20 in 1.0 mi North 3.5 mph - N/A Snow Snow
10:55 PM 21.2 °F 16.4 °F 19.4 °F 93% 30.18 in 1.2 mi North 3.5 mph - N/A Snow Snow
11:15 PM 21.2 °F 16.4 °F 19.4 °F 93% 30.17 in 1.0 mi North 3.5 mph - N/A Snow Snow
11:35 PM 21.2 °F 16.4 °F 19.4 °F 93% 30.16 in 1.2 mi North 3.5 mph - N/A Snow Snow
11:55 PM 21.2 °F 14.9 °F 19.4 °F 93% 30.15 in 1.2 mi NNW 4.6 mph - N/A Snow Light Snow